Regional Weather Roundup
Issued by NWS Boston, MA

Home | Current Version | Previous Version | Text Only | Print | Product List | Glossary On
Versions: 1 2 3 4 5 6 7 8 9 10 11 12 13 14 15 16 17 18 19 20 21 22 23 24 25 26 27 28 29 30 31 32 33 34 35 36 37 38 39 40 41 42 43 44 45 46 47 48 49 50
000
ASUS41 KBOX 260810
RWRBOX

REGIONAL WEATHER ROUNDUP
NATIONAL WEATHER SERVICE TAUNTON MA
400 AM EDT WED JUL 26 2017

NOTE:  "FAIR" INDICATES FEW OR NO CLOUDS BELOW 12,000 FEET WITH NO
SIGNIFICANT WEATHER AND/OR OBSTRUCTIONS TO VISIBILITY.

MAZALL-260900-
EASTERN MASSACHUSETTS

CITY           SKY/WX    TMP DP  RH WIND       PRES   REMARKS
BOSTON         CLEAR     60  56  86 W6        30.20S
BEVERLY        CLEAR     56  55  97 NW5       30.19S
LAWRENCE       CLEAR     57  55  93 CALM      30.22S
BEDFORD        CLEAR     53  50  89 CALM      30.20S
BLUE HILL        N/A     57  54  89 NW10      30.20S
NORWOOD        PTCLDY    48  48 100 CALM      30.21R
MARSHFIELD     CLEAR     54  54 100 CALM      30.20S
PLYMOUTH       CLEAR     51  49  92 CALM      30.21S
TAUNTON        CLEAR     48  47  96 CALM      30.20F
NEW BEDFORD    CLEAR     54  51  90 CALM      30.20R
$$

MAZALL-260900-
CAPE COD AND THE ISLANDS

CITY           SKY/WX    TMP DP  RH WIND       PRES   REMARKS
FALMOUTH       NOT AVBL
HYANNIS        CLEAR     60  56  86 N6        30.18R
CHATHAM        CLEAR     58  55  90 N3        30.20S
PROVINCETOWN   CLEAR     57  55  93 NW7       30.20S
NANTUCKET      CLEAR     57  57 100 NE6       30.18S
MARTHAS VNYRD  CLEAR     54  51  90 NW3       30.20R
$$

MAZALL-260900-
CENTRAL AND WESTERN MASSACHUSETTS

CITY           SKY/WX    TMP DP  RH WIND       PRES   REMARKS
WORCESTER      CLEAR     57  53  86 NW9       30.23R
FITCHBURG      CLEAR     56  54  93 NW5       30.23R
ORANGE         FOG       53  53 100 CALM      30.23F VSB 1/4
SPRINGFIELD    FOG       54  52  94 CALM      30.22S VSB 1/2
WESTFIELD      FOG       53  53 100 CALM      30.23S VSB 1/2
NORTH ADAMS    CLOUDY    57  55  93 CALM      30.25F
PITTSFIELD     FOG       55  54  96 CALM      30.24S VSB 1/4
$$

RIZALL-260900-
RHODE ISLAND

CITY           SKY/WX    TMP DP  RH WIND       PRES   REMARKS
PROVIDENCE     CLEAR     56  55  97 CALM      30.22R
NEWPORT        CLEAR     56  55  97 CALM      30.21R
BLOCK ISLAND   CLEAR     60  57  89 N5        30.22R
WESTERLY       CLEAR     56  54  93 CALM      30.22S
$$

CTZALL-260900-
CONNECTICUT

CITY           SKY/WX    TMP DP  RH WIND       PRES   REMARKS
BRADLEY INTL   PTCLDY    56  55  97 W3        30.23F
HARTFORD       CLEAR     56  56 100 CALM      30.23F
BRIDGEPORT     CLEAR     61  57  87 N7        30.22F
DANBURY        CLEAR     55  55 100 CALM      30.24F
GROTON         CLEAR     57  55  93 N6        30.21S
NEW HAVEN      CLEAR     57  55  93 CALM      30.22F
CHESTER        NOT AVBL
MERIDEN        CLEAR     55  54  96 CALM      30.23F
WILLIMANTIC    MOCLDY    55  53  93 CALM      30.23S
OXFORD         CLEAR     54  48  82 CALM      30.24F
$$

MEZ002-015-021-024-NHZ003-005-008-011-012-014-VTZ005-008-260900-
NORTHERN NEW ENGLAND

CITY           SKY/WX    TMP DP  RH WIND       PRES   REMARKS
PORTLAND ME    CLEAR     57  54  89 W3        30.19R
BANGOR ME      CLEAR     51  50  96 CALM      30.18S
CONCORD NH     FOG       52  50  93 CALM      30.22S VSB 1/4
MANCHESTER NH  CLEAR     58  54  86 CALM      30.20R
NASHUA NH      CLEAR     53  51  93 CALM      30.22S
PORTSMOUTH NH  CLEAR     56  55  95 W5        30.19R
JAFFREY NH     FOG       50  50 100 CALM      30.25R VSB 1
KEENE NH       NOT AVBL
BURLINGTON VT  CLEAR     55  54  96 SE3       30.22F
MT. WASHINGTON CLEAR     45  32  61 N3          N/A
$$

NYZ052-076-260900-
EASTERN NEW YORK

CITY           SKY/WX    TMP DP  RH WIND       PRES   REMARKS
ALBANY         PTCLDY    58  56  93 CALM      30.24S
NEW YORK CITY  CLOUDY    67  59  75 NE6       30.20F
$$

ANZALL-260900-
MARINE OBSERVATIONS

STATION/POSITION TIME  TEMP    WIND        PRES    VSBY  WAVE
                       AIR SEA DIR/SP/G                  HT/PER
                 (UTC) (F)     (DEG/KT/KT) (MB)    (MI)  (FT/S)
BOSTON BUOY      0750   62 63  240/  6/  8 1022.3R         3/ 8
BUZZARDS BAY     0700   61     360/ 14/ 15 1022.7R
NANTUCKET SOUND  0750      68              1021.7R         2/ 3
MASS BAY-STELLWA 0704   62 62  260/  6/  8 1021.4F         3/ 8
ISLE OF SHOALS   0700   60     270/  6/  6 1021.9F
S OF BLOCK IS    0755      71                N/A           3/ 4
$$

......................KEY.........................
  SKY/WX - SKY CONDITION/PRESENT WEATHER
  TMP    - TEMPERATURE IN FAHRENHEIT
  DWPT   - DEWPOINT IN FAHRENHEIT
  RH     - RELATIVE HUMIDITY IN PERCENT
  WIND   - DIRECTION AND SPEED IN MPH
  PRES   - MEAN SEA LEVEL PRESSURE IN INCHES OF HG
  WCI    - WIND CHILL INDEX
  VSB    - VISIBILITY IN MILES
  HX     - HEAT INDEX
  TC     - TEMPERATURE IN CELSIUS
  VRB    - VARIABLE WIND DIRECTION
  N/A    - NOT AVAILABLE



USA.gov is the U.S. government's official web portal to all federal, state and local government web resources and services.